Location: Christgarten
(48.7834°N, 10.4638°E)
Time: 20:34:30
(UTC+00:00)

Daily predictions for brighter satellites

Satellite Brightness Start Highest point End
(mag) Time Altitude Azimuth Time Altitude Azimuth Time Altitude Azimuth
USA 245 3.6 19:55:43 10° SSE 19:59:03 52° ENE 20:03:19 10° N
Cosmos 1328 4.3 19:56:37 10° SSE 20:00:22 42° E 20:04:08 10° NNE
ATLAS 2AS CENTAUR R/B 4.1 19:58:52 10° NW 20:06:00 37° NNE 20:12:39 10° E
Cosmos 1844 3.8 20:04:00 10° NNW 20:09:50 86° ENE 20:15:34 10° SSE
COSMOS 2428 3.6 20:05:12 10° SSE 20:10:00 29° ESE 20:14:50 10° NE
Cosmos 1703 3.3 20:07:23 10° S 20:11:13 63° E 20:15:04 10° NNE
Cosmos 2322 4.0 20:07:08 10° S 20:12:38 49° ESE 20:18:08 10° NE
Cosmos 1745 Rocket 4.1 20:06:44 10° S 20:12:57 87° W 20:19:16 10° N
MetOp-B 4.3 20:08:27 10° SSE 20:13:48 83° WSW 20:19:12 10° NNW
Cosmos 2084 4.1 20:10:30 10° NW 20:14:54 53° NE 20:19:15 10° ESE
Cosmos 1953 Rocket 3.9 20:14:10 10° SSE 20:18:18 46° E 20:22:27 10° NNE
Cosmos 773 Rocket 4.3 20:13:46 10° S 20:18:52 50° ESE 20:23:59 10° NNE
ATLAS CENTAUR R/B 1.6 20:17:37 10° NNW 20:21:17 51° NE 20:24:46 10° ESE
Cosmos 2237 Rocket 3.9 20:18:16 10° SE 20:21:18 15° E 20:24:22 10° ENE
Cosmos 2219 Rocket 2.7 20:16:35 10° S 20:21:44 39° ESE 20:26:55 10° NE
ERS-1 Rocket 3.3 20:17:03 10° SE 20:21:56 54° ENE 20:26:51 10° N
Gblst 52 Del rocket 4.3 20:17:29 10° WNW 20:23:07 86° NNE 20:29:20 10° ESE
USA 215 3.8 20:17:19 10° ENE 20:23:15 35° SE 20:29:09 10° SSW
Cosmos 1818 3.6 20:17:51 10° SW 20:23:18 88° NW 20:28:47 10° NE
Cosmos 2360 Rocket 2.4 20:18:35 10° SSW 20:24:15 81° WNW 20:29:57 10° NNE
Cosmos 2333 4.3 20:18:57 10° S 20:24:28 58° ESE 20:30:04 10° NE
SPOT 5 3.3 20:23:12 10° SE 20:28:04 52° ENE 20:32:41 10° N
Landsat 7 4.0 20:26:48 10° S 20:31:34 78° WSW 20:36:21 10° NNW
Atlas Centaur 2 4.1 20:28:47 10° SSW 20:31:44 14° S 20:34:39 11° SSE
Cosmos 1825 Rocket 3.7 20:28:52 10° S 20:33:19 84° WNW 20:37:49 10° N
Cosmos 2333 Rocket 2.4 20:30:01 10° S 20:35:31 54° ESE 20:41:06 10° NE
GEOS 3 Rocket 3.7 20:33:45 10° NE 20:39:07 64° SE 20:44:28 10° SSW
SL-16 R/B 4.3 20:39:55 10° WSW 20:44:57 32° NW 20:50:01 10° NNE
Spot 2 Rocket 4.1 20:40:14 10° S 20:45:13 56° W 20:50:16 10° NNW
Cosmos 1315 Rocket 3.0 20:42:20 10° N 20:46:25 66° ENE 20:49:46 15° SSE
IGS 5A 4.2 20:43:00 10° S 20:47:03 50° W 20:51:07 10° NNW
ATLAS 5 CENTAUR R/B 2.2 20:48:43 10° SW 20:52:52 60° NW 20:57:37 10° NE
Cosmos 1892 4.2 20:51:28 15° SE 20:53:20 22° E 20:56:17 10° NE
CARTOSAT-1 3.6 20:49:41 13° SSE 20:53:32 85° WSW 20:57:53 10° NNW
Cosmos 2278 Rocket 2.6 20:48:35 10° NNW 20:54:11 56° ENE 20:58:50 15° SE
USA 81 4.0 20:49:09 10° S 20:54:25 78° E 20:59:42 10° N
Cosmos 1844 Rocket 3.8 20:51:05 10° NW 20:56:08 36° WSW 21:01:10 10° S
USA 267 3.6 20:50:24 10° ESE 20:56:54 68° NNE 21:03:25 10° NW
Cosmos 1709 Rocket 4.3 20:51:38 10° SSW 20:57:55 73° W 21:04:20 10° N
Meteor 1-11 4.4 20:58:41 10° SSW 21:04:19 79° WNW 21:10:04 10° N
Cosmos 1408 4.4 21:03:38 15° ESE 21:04:52 17° E 21:07:15 10° NE
SPOT 1/Viking Rocket 4.3 21:00:59 10° S 21:05:57 49° W 21:10:58 10° NNW
SL-16 R/B 4.1 21:04:44 11° ESE 21:06:28 12° E 21:08:40 10° ENE
Cosmos 2221 2.6 21:07:55 10° N 21:12:18 70° ENE 21:15:14 20° SSE
Cosmos 2184 Rocket 4.1 21:08:52 14° S 21:14:10 63° E 21:20:25 10° NNE
Lacrosse 5 rocket 3.6 21:11:48 10° NW 21:15:19 25° N 21:18:41 10° ENE
Resurs 01 Rocket 4.2 21:13:39 10° WSW 21:15:47 13° W 21:17:56 10° WNW
In-Cosmos 22 Rocket 4.4 21:14:18 18° SSE 21:18:04 51° E 21:23:14 10° NNE
Terra 1.9 21:14:58 17° S 21:18:35 78° WSW 21:23:23 10° NNW
Cosmos 923 Rocket 4.3 21:16:24 16° S 21:20:22 50° ESE 21:25:29 10° NNE
TSX-5 3.6 21:24:17 10° NNW 21:27:47 89° SW 21:30:04 25° SSE
NOSS 3-4 (A) 3.9 21:22:59 10° NW 21:29:53 76° NE 21:36:03 17° SE
Cosmos 2058 3.1 21:27:37 23° SSE 21:29:58 55° E 21:34:02 10° NNE
NOSS 3-4 (C) 3.9 21:23:06 10° NW 21:30:00 76° NE 21:36:11 17° SE
Cosmos 1624 Rocket 4.5 21:32:44 10° NNW 21:37:52 51° ENE 21:41:12 21° SE
NOSS 3-3 (A) 4.2 21:34:12 10° SW 21:40:07 76° NW 21:46:55 10° NE
NOSS 3-3 (C) 4.1 21:34:18 10° SW 21:40:14 77° NW 21:47:02 10° NE
Cosmos 1825 3.2 21:39:57 25° SE 21:41:08 30° E 21:44:29 10° NNE
Cosmos 2369 Rocket 4.2 21:41:12 10° N 21:45:21 21° NE 21:49:28 10° E
JB-3 4.2 21:41:54 10° NNE 21:45:46 86° WNW 21:48:03 23° SSW
Cosmos 1980 3.7 21:41:49 15° SSW 21:46:27 68° ESE 21:52:06 10° NNE
Aureole 2 Rocket 3.6 21:45:27 10° N 21:47:54 26° ENE 21:48:50 21° E
Meteor 2-17 Rocket 4.4 21:43:29 17° S 21:48:22 88° WNW 21:54:27 10° N
Cosmos 1076 Rocket 3.4 21:47:32 25° S 21:49:59 81° E 21:54:16 10° NNE
Nadezhda 3 Rocket 4.0 21:44:43 10° N 21:51:08 86° E 21:55:18 23° S
COSMOS 2455 4.1 21:47:13 10° NNW 21:52:44 35° NE 21:58:14 10° ESE
COSMOS 2428 3.5 21:48:28 10° SW 21:53:59 53° NW 21:59:35 10° NNE
Cosmos 2154 Rocket 4.0 21:49:47 20° S 21:54:12 80° E 22:00:27 10° N
Cosmos 2151 3.6 21:55:43 29° SE 21:57:21 43° E 22:01:25 10° NNE
ATLAS 2AS CENTAUR R/B 2.8 21:50:11 10° NW 21:57:51 86° SW 22:02:39 22° SE
Cosmos 2341 Rocket 4.3 21:55:15 24° SSE 21:58:49 51° E 22:04:48 10° NNE
Thor Agena Rocket 3.7 21:53:48 10° NNE 21:58:51 57° ESE 22:01:29 27° S
DELTA 2 R/B (1) 4.3 21:54:27 10° SW 21:59:16 30° S 22:01:15 24° SE
ATLAS CENTAUR R/B 3.0 21:57:18 10° WNW 21:59:47 17° WSW 22:00:56 15° SW
Cosmos 1869 4.5 21:56:34 10° NNW 22:00:14 35° W 22:02:34 19° SSW
Cosmos 2074 Rocket 4.4 21:54:31 12° SSW 22:00:15 62° WNW 22:06:27 10° N
BREEZE-M DEB (TANK) 1.4 21:58:05 10° WNW 22:02:28 85° SSW 22:03:23 37° ESE
Genesis I 3.1 22:00:57 28° SSW 22:02:52 64° SE 22:06:44 10° NE
Cosmos 2237 Rocket 2.2 21:59:39 15° SSW 22:04:29 85° ESE 22:10:14 10° NNE
Cosmos 2219 Rocket 3.5 22:00:26 10° WSW 22:05:41 40° NW 22:10:59 10° NNE
Cosmos 1371 Rocket 4.0 22:00:43 10° NNW 22:06:01 88° WSW 22:08:51 28° SSE
USA 215 3.3 22:00:07 10° NE 22:06:43 85° NNW 22:13:16 10° WSW
Spot 4 3.8 22:06:50 30° SSE 22:09:15 85° ENE 22:14:04 10° NNW
Cosmos 2344 3.6 22:05:03 13° SSW 22:11:42 62° ESE 22:19:37 10° NE
Cosmos 158 Rocket 3.8 22:09:33 21° SSW 22:12:50 87° WNW 22:17:47 10° NNE
Cosmos 1151 Rocket 3.8 22:09:48 10° N 22:13:57 42° ENE 22:15:44 27° SE
SL-8 Rocket 4.4 22:11:02 26° SSE 22:14:18 49° E 22:20:12 10° NNE
Cosmos 2112 Rocket 4.0 22:12:33 20° SSW 22:16:20 88° WNW 22:21:45 10° NNE
Elektron 1 4.4 22:15:08 18° SW 22:17:31 87° NW 22:23:15 10° NE
CZ-4C R/B 4.0 22:12:18 10° NW 22:18:37 40° NNE 22:25:59 10° E
Cosmos 2333 Rocket 3.9 22:15:00 10° WSW 22:20:05 32° NW 22:25:13 10° NNE
ALOS 2 2.9 22:18:57 30° SE 22:20:53 57° ENE 22:25:13 10° N
Cosmos 1420 Rocket 4.3 22:15:46 10° NNW 22:21:01 62° ENE 22:23:56 26° SE
Iridium 2 4.1 22:20:37 10° NNW 22:24:22 55° W 22:25:48 33° SSW
EO 1 Del DPAF 3.2 22:24:45 10° NNE 22:28:31 81° WNW 22:29:54 37° SSW
Cosmos 1892 4.2 22:26:26 16° SW 22:28:51 31° WNW 22:32:18 10° N
NOSS 0 Rocket 4.5 22:23:46 10° SW 22:29:50 58° NW 22:35:57 10° NNE
Cosmos 2056 Rocket 3.7 22:24:27 10° NNW 22:29:50 66° WSW 22:32:26 31° S
GP-B 3.3 22:27:01 10° N 22:31:26 61° E 22:33:05 36° SSE
Cosmos 1633 4.2 22:32:54 21° ESE 22:33:27 21° E 22:36:15 10° NE
Nimbus 7 Rocket 4.4 22:28:59 10° NNE 22:34:55 67° ESE 22:37:59 29° S
Cosmos 1606 2.6 22:32:21 10° N 22:36:16 86° ENE 22:37:25 45° SSE
RESURS DK-1 4.5 22:34:17 10° N 22:37:34 22° NE 22:40:50 10° E
Cosmos 2278 Rocket 3.5 22:33:14 10° NW 22:37:56 27° WSW 22:40:40 19° SW
Cosmos 1408 3.8 22:37:57 22° SW 22:39:37 35° WNW 22:42:56 10° N
USA 267 3.5 22:36:39 27° SSE 22:40:05 51° SW 22:46:27 10° WNW
Cosmos 2297 3.7 22:35:14 10° NNW 22:41:00 81° WSW 22:43:51 31° SSE
Cosmos 1943 Rocket 2.7 22:36:12 10° NNW 22:41:49 56° ENE 22:45:29 21° SE
MOS 1-B Rocket 4.5 22:34:11 10° NNE 22:41:59 81° WNW 22:46:38 22° SSW
Cosmos 44 2.9 22:40:51 37° SSW 22:42:26 68° SE 22:46:52 10° NE
Gbstr 26 Del rocket 3.7 22:44:20 30° ESE 22:44:20 30° ESE 22:47:11 10° ENE
Cosmos 1680 Rocket 4.4 22:39:45 12° SW 22:44:31 48° WNW 22:49:42 10° NNE
Cosmos 371 Rocket 3.2 22:44:26 10° NNW 22:49:21 89° WSW 22:51:21 36° SSE
SL-16 R/B 2.2 22:46:35 29° SSW 22:49:33 74° ESE 22:55:15 10° NNE
IRIDIUM 104 4.3 22:49:58 34° S 22:52:20 85° E 22:57:36 10° N
APEX 2.4 22:51:08 10° NNW 22:53:51 69° ENE 22:53:51 69° ENE
CREW DRAGON DEMO-1 DEB 2.8 22:53:16 39° WSW 22:54:17 83° NNW 22:57:22 10° ENE
Lacrosse 5 rocket 2.3 22:51:22 10° NW 22:55:15 43° NNE 22:58:55 10° E
Cosmos 405 3.9 22:51:55 10° N 22:55:18 40° ENE 22:56:11 33° ESE
Cosmos 1452 Rocket 3.5 22:51:31 10° NNW 22:56:50 82° ENE 22:59:20 32° SSE
Terra 4.4 22:56:32 10° W 22:57:08 10° W 22:57:45 10° WNW
Cosmos 1515 Rocket 3.6 22:54:15 10° N 22:58:36 69° ENE 23:00:08 39° SSE
IRIDIUM 114 4.3 22:59:06 33° S 23:01:30 81° W 23:06:45 10° N
Cosmos 1766 Rocket 3.8 23:01:32 33° SW 23:03:20 62° WNW 23:07:44 10° N
Cosmos 1328 Rocket 3.7 23:00:27 10° NNW 23:04:43 63° W 23:06:06 39° SSW
Okean 3 Rocket 4.3 23:07:35 27° SW 23:09:38 47° WNW 23:13:56 10° N
IRIDIUM 103 4.5 23:08:14 32° SSW 23:10:40 69° W 23:15:54 10° N
Meteor 2-3 Rocket 3.7 23:12:54 32° SSW 23:15:40 88° WNW 23:21:25 10° NNE
Cosmos 1340 2.8 23:15:33 44° SW 23:16:33 66° WNW 23:20:18 10° N
Cosmos 1825 4.1 23:14:44 16° WSW 23:16:40 23° WNW 23:19:45 10° NNW
Cosmos 2228 Rocket 3.4 23:15:03 10° N 23:19:38 64° ENE 23:21:26 35° SSE
Resurs 1-4 Rocket 4.5 23:19:11 10° ENE 23:20:32 11° E 23:21:52 10° E
Aureole 2 Rocket 4.3 23:19:25 10° WNW 23:20:49 16° W 23:20:49 16° W
Cosmos 2218 Rocket 4.2 23:17:43 27° SSW 23:21:22 68° WNW 23:27:40 10° N
Cosmos 1603 4.3 23:22:36 30° SSE 23:24:44 42° ESE 23:30:06 10° NE
Meteor 1-26 Rocket 4.5 23:19:38 10° NNW 23:25:35 64° W 23:28:23 32° SSW
Cosmos 2366 rocket 4.2 23:21:57 27° SSW 23:25:35 66° WNW 23:31:56 10° N
Meteor 2-6 Rocket 4.4 23:20:20 10° N 23:25:48 61° ENE 23:28:38 28° SSE
Cosmos 2369 Rocket 2.1 23:24:35 10° NNW 23:30:14 86° ENE 23:33:18 28° SSE
CZ-4 R/B 4.2 23:26:08 10° NNE 23:30:43 51° E 23:32:25 34° SSE
Cosmos 1743 Rocket 3.4 23:29:40 43° S 23:31:03 82° E 23:35:24 10° N
Sich 1 4.3 23:29:53 23° SE 23:31:24 29° E 23:35:09 10° NNE
SL-4 R/B 3.2 23:33:31 15° NW 23:33:31 15° NW 23:34:07 10° NW
Cosmos 44 Rocket 4.1 23:32:07 29° SE 23:33:01 31° ESE 23:37:13 10° NE
Cosmos 304 Rocket 3.7 23:28:21 10° NNW 23:33:12 73° WSW 23:35:00 38° S
Cosmos 1821 Rocket 4.1 23:30:57 30° SSE 23:34:02 66° E 23:40:05 10° NNE
YAOGAN 11 4.1 23:33:15 41° S 23:34:39 68° WSW 23:39:05 10° NNW
Helios 1A 3.3 23:34:08 40° SSW 23:35:13 52° W 23:39:17 10° NNW
COSMOS 2455 3.0 23:33:05 10° NW 23:39:01 59° WSW 23:41:47 31° S
Cosmos 1656 Rocket 4.1 23:34:58 10° NNW 23:40:20 56° ENE 23:44:30 17° SE
ATLAS 2AS CENTAUR R/B 4.1 23:42:28 10° WNW 23:47:43 21° WSW 23:50:03 18° SW
Cosmos 2237 Rocket 4.3 23:44:51 10° W 23:49:18 23° NW 23:53:46 10° N
USA 215 4.3 23:43:09 10° ENE 23:49:24 48° NNW 23:55:37 10° W
Cosmos 1812 3.1 23:46:16 10° N 23:50:06 57° ENE 23:51:25 36° SE
CRYOSAT 2 4.3 23:46:51 10° N 23:51:45 84° E 23:53:46 36° S
Cosmos 1782 3.4 23:48:26 10° NNW 23:52:10 42° W 23:53:04 36° SW
CZ-2D R/B 3.9 23:50:09 10° NE 23:54:06 21° E 23:57:20 13° SE
USA 32 4.3 23:51:42 30° SSE 23:54:13 59° E 23:59:24 10° NNE
